This is the latest recevied weather packets stored in our database for station/object HB9HUT-13. If no packets are shown the sender has not sent any weather packets the latest 1 day(s).
| Time | Temp. | Humidity | Pressure | Rain* | Wind** | Luminosity | Snow |
|---|---|---|---|---|---|---|---|
| 1778006196 | 14.44° C | 43% | 840 hPa | - | 0 m/s | - | - |
| 1778005293 | 15.56° C | 42% | 840.1 hPa | - | 0 m/s | - | - |
| 1778005293 | 15.56° C | 42% | 840.1 hPa | - | 0 m/s | - | - |
| 1778004390 | 16.11° C | 41% | 839.9 hPa | - | 0 m/s | - | - |
| 1778004390 | 16.11° C | 41% | 839.9 hPa | - | 0 m/s | - | - |
| 1778003487 | 16.67° C | 40% | 839.7 hPa | - | 0 m/s | - | - |
| 1778003487 | 16.67° C | 40% | 839.7 hPa | - | 0 m/s | - | - |
| 1778002584 | 17.78° C | 41% | 839.8 hPa | - | 0 m/s | - | - |
| 1778001681 | 18.33° C | 40% | 839.4 hPa | - | 0 m/s | - | - |
| 1778001681 | 18.33° C | 40% | 839.4 hPa | - | 0 m/s | - | - |
| 1778000778 | 18.89° C | 40% | 839.4 hPa | - | 0 m/s | - | - |
| 1777999875 | 19.44° C | 40% | 839.3 hPa | - | 0 m/s | - | - |
| 1777999875 | 19.44° C | 40% | 839.3 hPa | - | 0 m/s | - | - |
| 1777998972 | 20° C | 39% | 839.3 hPa | - | 0 m/s | - | - |
| 1777998069 | 20.56° C | 39% | 839.3 hPa | - | 0 m/s | - | - |
| 1777997166 | 21.11° C | 39% | 839.2 hPa | - | 0 m/s | - | - |
| 1777996263 | 21.67° C | 39% | 839.1 hPa | - | 0 m/s | - | - |
| 1777995360 | 22.22° C | 39% | 839 hPa | - | 0 m/s | - | - |
| 1777995360 | 22.22° C | 39% | 839 hPa | - | 0 m/s | - | - |
| 1777994457 | 23.33° C | 38% | 838.8 hPa | - | 0 m/s | - | - |
| 1777993554 | 23.89° C | 38% | 838.9 hPa | - | 0 m/s | - | - |
| 1777993554 | 23.89° C | 38% | 838.9 hPa | - | 0 m/s | - | - |
| 1777992651 | 24.44° C | 38% | 838.8 hPa | - | 0 m/s | - | - |
| 1777991748 | 24.44° C | 38% | 838.7 hPa | - | 0 m/s | - | - |
| 1777991748 | 24.44° C | 38% | 838.7 hPa | - | 0 m/s | - | - |
* Rain since midnight (hover to see other rain measurements)
** Current wind speed in m/s (hover to see current wind gust speed)